DONNELLS (DON)

Elevation: 4835' · STANISLAUS R basin · Operator: US Bureau of Reclamation

Provisional data, subject to change.
Query executed Sunday at 0:06:19   clock

Select a sensor type for a plot of data.
Note: Reservoir Flows are daily averages.

Earlier

Date STORAGE    RES CHG    OUTFLOW   
 AF   AF   CFS  
04/25/2015 32744 439 97
04/26/2015 33187 443 82
04/27/2015 33838 651 82
04/28/2015 34593 755 93
04/29/2015 35376 783 101
04/30/2015 36152 776 113
05/01/2015 37061 909 97
05/02/2015 38053 992 92
05/03/2015 39007 -- 82
05/04/2015 39947 940 81
05/05/2015 40718 -- 89
05/06/2015 41486 768 89
05/07/2015 42178 692 101
05/08/2015 42888 710 85
05/09/2015 43731 843 91
05/10/2015 44751 1020 95
05/11/2015 45793 1042 89
05/12/2015 46707 914 101
05/13/2015 47452 745 100
05/14/2015 48086 634 95
05/15/2015 48760 674 88
05/16/2015 49239 479 176
05/17/2015 49810 571 177
05/18/2015 50376 566 174
05/19/2015 50871 495 180
05/20/2015 51382 511 153
05/21/2015 51952 570 178
05/22/2015 52749 797 152
05/23/2015 -- -- --
05/24/2015 -- -- --

Later | Latest

Warning! This data is preliminary and subject to revision.

Show DON Map | Plot DON Data | 1 Month DON Data | Real-Time DON Data | DON Info